Hovedside
METAR-TAF:

METAR-TAF

Lufthavner :

Røst, Norge

Røst lufthavn

breddegrad: 67-31N, lengdegrad: 012-06E, høyde over havet: 4 m

Gjeldene værobservasjon

Denne rapporten ble laget for 6 timer og 41 minutter siden, klokken 07:50 UTC
Vind 20 kt fra Øst
Temperatur 1°C
Luftfuktighet 64%
Trykk 1011 hPa
Sikt 10 km eller mer
ingen skyer under 1500 m og ingen bygeskyer

METAR: ENRS 220750Z 10020KT CAVOK 01/M05 Q1011

Tid: 15:31 (14:31 UTC)


TAF: fraværende

Værobservasjoner og værvarsel for over 4000 flyplasser (METAR- og TAF-rapporter).

Tilgjengelige stasjoner er representert av de røde og gule prikkene på kartet.

Hold musepekeren over prikken for å se navnet på stasjonen.

Klikk så for å se værobservasjoner og -varsler.

For å forandre kartet kan du klikke på den grønne knappen med svart kryss for å zoome inn, på den grønne knappen med strek for å zoome ut, eller på de grønne pilene for å se tilstøtende kart.


METAR-TAF: